Погода в Шахрихане

Узбекистан     40°42′41″N   72°03′03″E
темп.,
°C
ветер,
м/с
пор.,
м/с
влажн.,
%
обл.,
%
осадки,
мм/ч
давл.,
гПа
погр.,
м
27 февраля, сб
сб2723:000ссв223423 0.0 103264
02:00−2ссв124149 0.0 103149
05:00−2ссв114075 0.0 103130
08:00−1ссз0138100 0.0 1030113
11:00+2зсз1129100 0.0 1029731
14:00+4юз1125100 0.0 10291188
17:00+4в1224100 0.2 10321068
20:00+3св473594 0.0 1037304
28 февраля, вс
вс2823:00+1св355257 0.0 1037139
02:00−1ссв22499 0.0 103557
05:00−2ссв11524 0.0 103422
08:000всв12510 0.0 1032103
11:00+5всв22330 0.0 1027628
14:00+8всв22250 0.0 1023857
17:00+8в22230 0.0 1024750
20:00+6св22320 0.0 102731
1 марта, пн
пн123:00+3св34480 0.0 102779
02:00+2св23485 0.0 102636
05:00+1всв125022 0.0 102524
08:00+3св2344100 0.0 1026114
11:00+8всв222586 0.0 1023512
14:00+12всв22188 0.0 1021773
17:00+12всв22194 0.0 1022710
20:00+9ссв12270 0.0 102523
2 марта, вт
вт223:00+6св23450 0.0 102743
02:00+5св33486 0.0 102739
05:00+4всв334653 0.0 102644
08:00+5св2438100 0.0 1026111
11:00+11всв2224100 0.0 1023426
14:00+14св221895 0.0 1021667
17:00+14ссв111997 0.0 1021530
20:00+11св1124100 0.0 102322
3 марта, ср
ср323:00+10ссв2235100 0.0 102323
02:00+8св1244100 0.0 102233
05:00+7ссз1249100 0.0 102222
08:00+8всв1146100 0.0 102270
11:00+13ссв343799 0.0 1020825
14:00+15св2231100 0.0 10171413
17:00+15с1232100 0.0 10181541
20:00+11св234592 0.0 102047